Location: Warszawa
(52.2500°N, 21.0000°E)
Time: 15:58:08
(UTC+01:00)

Vanguard 2 - Pass Details

Date: 15 February 2023
Orbit: 553 x 2927 km, 32.9° (Epoch: 24 March)

Event Time Altitude Azimuth Distance (km) Brightness Sun altitude
Rises 20:57:01 0° 248° (WSW) 4,483 11.9 -37.4°
Reaches altitude 10° 21:00:11 10° 237° (WSW) 3,830 11.3 -37.8°
Enters shadow 21:06:03 26° 202° (SSW) 3,278 10.5 -38.5°
Maximum altitude 21:08:37 28° 184° (S) 3,372 - -38.8°
Drops below altitude 10° 21:20:18 10° 134° (SE) 5,382 - -40.3°
Sets 21:25:52 0° 125° (SE) 6,625 - -40.9°
